Simultaneous Nadir Overpasses (SNOs) Predictions

Prediction of SNOs between TERRA and METOP-C Satellite Orbit:

Table of predicted SNOs for the next 14.0 days since TLE Epoch: 9/23/2023
Index Date (TERRA) Time (TERRA) Lat,Lon (TERRA) SZA (TERRA ) Date (METOP-C) Time (METOP-C) Lat,Lon (METOP-C) SZA (METOP-C ) Distance(km) Time Diff (sec)
1 09/25/2023 13:10:53 -80.58,-169.05 97.26 09/25/2023 13:09:46 -80.57,-169.09 97.29 0.80 67
2 09/25/2023 14:00:12 80.67, -0.46 82.91 09/25/2023 14:00:23 80.67, -0.37 82.93 1.67 11
3 09/28/2023 05:21:29 -80.64, -51.09 96.10 09/28/2023 05:21:18 -80.63, -51.15 96.11 1.33 11
4 09/28/2023 06:10:48 80.72, 117.45 84.07 09/28/2023 06:11:55 80.72, 117.53 84.10 1.41 67
5 09/30/2023 20:42:44 80.60,-101.85 84.88 09/30/2023 20:42:12 80.60,-101.85 84.87 0.15 32
6 09/30/2023 21:32:04 -80.68, 66.63 94.98 09/30/2023 21:32:49 -80.68, 66.73 94.95 1.88 45
7 10/03/2023 12:04:00 -80.57,-152.51 94.15 10/03/2023 12:03:07 -80.56,-152.64 94.18 2.45 53
8 10/03/2023 12:53:19 80.64, 15.90 86.00 10/03/2023 12:53:44 80.64, 15.90 86.01 0.45 25
9 10/06/2023 03:25:14 80.53, 156.80 86.82 10/06/2023 03:24:01 80.53, 156.74 86.79 1.05 73



Historial Predications of SNOs between TERRA and METOP-C
